Regional Weather Roundup
Issued by NWS

Home | Current Version | Previous Version | Graphics & Text | Print | Product List | Glossary On
Versions: 1 2 3 4 5 6 7 8 9 10 11 12 13 14 15 16 17 18 19 20 21 22 23 24 25 26 27 28 29 30 31 32 33 34 35 36 37 38 39 40 41 42 43 44 45 46 47 48 49 50
000
ASUS43 KLSX 220407
RWRMO

WEATHER SUMMARY FOR MISSOURI
NATIONAL WEATHER SERVICE SPRINGFIELD MO
1100 PM CDT THU MAY 21 2015

NOTE: "FAIR" INDICATES FEW OR NO CLOUDS BELOW 12,000 FEET WITH NO
       SIGNIFICANT WEATHER AND/OR OBSTRUCTIONS TO VISIBILITY.
       CURRENT SKY AND/OR WEATHER CONDITIONS ARE NOT AVAILABLE FOR
       CHILLICOTHE AND FARMINGTON.

MOZ001>031-035>038-043-044-053-054-220500-
...NORTHERN AND WESTERN MISSOURI...

CITY           SKY/WX    TMP DP  RH WIND       PRES   REMARKS
KANSAS CTY INT MOCLDY    57  44  62 SW7       30.21R
KANSAS C DTWN  CLEAR     59  47  64 CALM      30.20R
LEE`S SUMMIT   CLEAR     54  44  69 S5        30.21R
ST JOSEPH      PTCLDY    54  49  83 S3        30.20R
CHILLICOTHE      N/A     56  46  69 CALM      30.18S
KIRKSVILLE     CLEAR     56  47  71 SW6       30.16R

$$
MOZ066>068-077>081-088>096-101>105-220500-
...SOUTHWEST MISSOURI...

CITY           SKY/WX    TMP DP  RH WIND       PRES   REMARKS
SPRINGFIELD    CLEAR     50  44  80 CALM      30.22R
JOPLIN         CLEAR     49  47  93 CALM      30.25R

$$
MOZ032>034-039>042-045>050-055>058-069>072-220500-
...CENTRAL MISSOURI...

CITY           SKY/WX    TMP DP  RH WIND       PRES   REMARKS
COLUMBIA       CLEAR     54  45  71 SW7       30.19S
JEFFERSON CITY CLEAR     53  46  77 CALM      30.20R
ROLLA          CLEAR     47  42  83 SW6       30.19S
SEDALIA        CLEAR     56  46  69 SW7       30.22R
WHITEMAN AFB   CLEAR     53  47  79 SW5       30.20R
WARRENSBURG    CLEAR     52  46  82 S5        30.21R
OSAGE BEACH    CLEAR     46  43  87 CALM      30.22R

$$
MOZ051-052-059>065-220500-
...EAST CENTRAL MISSOURI...

CITY           SKY/WX    TMP DP  RH WIND       PRES   REMARKS
ST LOUIS INTL  CLEAR     57  42  57 CALM      30.18S
SPIRIT OF STL  CLEAR     48  46  93 CALM      30.17F
ST CHARLES     CLEAR     50  47  89 CALM      30.17S

$$
MOZ072>076-082>087-097>100-106>115-220500-
...SOUTH CENTRAL AND SOUTHEAST MISSOURI...

CITY           SKY/WX    TMP DP  RH WIND       PRES   REMARKS
CAPE GIRARDEAU CLEAR     49  46  90 CALM      30.22R
FARMINGTON     CLEAR     45  43  93 SW3       30.24S
POPLAR BLUFF   CLEAR     50  47  89 CALM      30.23R
WEST PLAINS    CLEAR     47  43  86 CALM      30.24R

$$



USA.gov is the U.S. government's official web portal to all federal, state and local government web resources and services.